Regional Weather Roundup
Issued by NWS

Home | Current Version | Previous Version | Text Only | Print | Product List | Glossary Off
Versions: 1 2 3 4 5 6 7 8 9 10 11 12 13 14 15 16 17 18 19 20 21 22 23 24 25 26 27 28 29 30 31 32 33 34 35 36 37 38 39 40 41 42 43 44 45 46 47 48 49 50

000
ASUS43 KBIS 022310
RWRND

NORTH DAKOTA REGIONAL WEATHER ROUNDUP
NATIONAL WEATHER SERVICE BISMARCK ND
600 PM CDT TUE SEP 02 2014

NOTE: "FAIR" INDICATES FEW OR NO CLOUDS BELOW 12,000 FEET WITH NO
SIGNIFICANT WEATHER AND/OR OBSTRUCTIONS TO VISIBILITY.


NDZ001>003-009>011-017-030000-
NORTHWEST NORTH DAKOTA

CITY           SKY/WX    TMP DP  RH WIND       PRES   REMARKS
WILLISTON      SUNNY     77  41  27 NW9       29.74F
MINOT          MOSUNNY   75  45  34 W10       29.72S
MINOT AFB      SUNNY     75  49  40 NW15      29.72S
$$

NDZ018>021-031>035-040>046-030000-
SOUTHWEST NORTH DAKOTA

CITY           SKY/WX    TMP DP  RH WIND       PRES   REMARKS
BISMARCK       SUNNY     80  48  32 NW10      29.76F
DICKINSON      CLOUDY    70  47  43 W7        29.78F
GARRISON         N/A     75  47  36 W12       29.74F
HETTINGER ARPT CLOUDY    73  45  36 W13       29.82F
$$

NDZ004>008-012>016-024-026-027-054-030000-
NORTHEAST NORTH DAKOTA

CITY           SKY/WX    TMP DP  RH WIND       PRES   REMARKS
GRAND FORKS    MOSUNNY   78  53  41 SW12G24   29.67F
GRND FRKS AFB  MOSUNNY   77  54  44 W14       29.69S
DEVILS LAKE    SUNNY     75  48  38 W18       29.69S
$$

NDZ022-023-025-028>030-036>039-047>053-030000-
SOUTHEAST NORTH DAKOTA

CITY           SKY/WX    TMP DP  RH WIND       PRES   REMARKS
FARGO          SUNNY     79  55  43 S22G29    29.72F
JAMESTOWN      PTSUNNY   76  53  44 W12       29.75S
$$



USA.gov is the U.S. government's official web portal to all federal, state and local government web resources and services.